星链-5151 (STARLINK-5151 )

导读

STARLINK-5151是美国太空探索技术公司(SpaceX)星链星座的成员,于2022年10月20日发射。星链项目旨在构建全球卫星互联网星座,该卫星承担着为全球用户提供低延迟、高速率互联网接入服务的任务,属于Starlink Group系列组网卫星,助力完善星链星座的全球覆盖能力,推动太空互联网基础设施建设。

基本信息
目录编号:
54066
目录名称:
STARLINK-5151
国际标识:
2022-136R
轨道中心:
EARTH
卫星名称:
星链-5151
卫星全名:
星链-5151 (STARLINK-5151 )
卫星状态:
在轨 (已飞行1334 天)
发射日期:
2022-10-20 UTC
国别 :
美国 (US)
星等 :
--
轨道信息
数据来源 国际轨道数据
星历时间: 2026-06-14T22:22:38+0800
17小时前
查看轨道信息
半长轴: 6920.408km
偏心率: 0.0001169
轨道倾角: 53.210°
近地点辐角 83.975°
升交点赤经 269.102°
平近点角 276.137°
近地点: 541.462km
远地点: 543.08km
周期: 95.490分钟
每日圈数: 15.080137
详细信息
固有亮度:
5
最大亮度:
2.5
卫星平台:
Starlink v1.5
覆盖范围:
全球
运营商:
太空探索技术公司
运营商所在国:
美国
制造商(研发单位):
太空探索技术公司
制造商所在国:
美国
使用方式:
暂无
卫星简介
星链(Starlink)计划是由太空探索技术公司(SpaceX)提出的一个巨型低轨卫星互联网星座项目,计划在2019年至2024年间在太空搭建由约1.2万颗卫星组成的“星链”网络,其中1584颗将部署在地球上空550千米处的近地轨道,并从2020年开始工作。该卫星仍在工作。
2D轨道图
3D轨道图
轨道高度分析图
轨道倾角分析图
轨道综合分析图
查看轨道综合分析图